Regional Weather Roundup
Issued by NWS

Home | Current Version | Previous Version | Text Only | Print | Product List | Glossary Off
Versions: 1 2 3 4 5 6 7 8 9 10 11 12 13 14 15 16 17 18 19 20 21 22 23 24 25 26 27 28 29 30 31 32 33 34 35 36 37 38 39 40 41 42 43 44 45 46 47 48 49 50

000
ASUS45 KCYS 290310
RWRWY

WYOMING REGIONAL WEATHER ROUNDUP
NATIONAL WEATHER SERVICE CHEYENNE WY
800 PM MST FRI NOV 28 2014

NOTE:  "FAIR" INDICATES FEW OR NO CLOUDS BELOW 12,000 FEET
WITH NO SIGNIFICANT WEATHER AND/OR OBSTRUCTIONS TO VISIBILITY.

WYZ001-290400-
YELLOWSTONE NATIONAL PARK

CITY           SKY/WX    TMP DP  RH WIND       PRES   REMARKS
LK YELLOWSTONE   N/A     36  13  38 W8        29.71F WCI  30
W YELLOWSTONE  NOT AVBL

$$
WYZ002>013-054>058-071-098>099-290400-
NORTHERN WYOMING

CITY           SKY/WX    TMP DP  RH WIND       PRES   REMARKS
JACKSON        CLOUDY    46  16  29 S21G30    29.72F
CODY           PTCLDY    52  10  19 SW15G21   29.56F
GREYBULL       PTCLDY    37  26  64 S8        29.57F WCI  31
WORLAND        PTCLDY    43  19  38 SW10      29.58F
SHERIDAN       PTCLDY    59  11  15 VRB5G31   29.47F
BUFFALO        PTCLDY    50  17  27 VRB5      29.55R
GILLETTE       MOCLDY    49  24  37 SW23      29.52F
HULETT           N/A    N/A N/A N/A MISG        N/A
NEWCASTLE      FAIR      46  23  39 SW7       29.62F

$$
WYZ014>020-022>026-101>103-290400-
CENTRAL WYOMING

CITY           SKY/WX    TMP DP  RH WIND       PRES   REMARKS
BIG PINEY      CLOUDY    40  13  33 W14       29.82F WCI  32
PINEDALE       CLOUDY    41  14  33 SW14      29.81F
DUBOIS         FAIR      41  10  28 W17       29.72F
LANDER         MOCLDY    53   5  14 SW28G35   29.68F
RIVERTON       PTCLDY    53   8  16 W16G28    29.70F
CASPER         PTCLDY    44  18  35 SW13      29.69F
DOUGLAS        PTCLDY    54  16  22 W23G33    29.66F

$$
WYZ021-027>030-104>119-290400-
SOUTHERN WYOMING

CITY           SKY/WX    TMP DP  RH WIND       PRES   REMARKS
EVANSTON       MOCLDY    42  15  33 SW17      29.87F
FORT BRIDGER   FAIR      45  11  24 SW14      29.89F
ROCK SPRINGS   PTCLDY    36  16  44 S8        29.86F WCI  30
DIXON          FAIR      43  16  32 SW13G21   29.95F
RAWLINS        CLEAR     45  13  27 SW17      29.84F
SARATOGA       FAIR      36  16  44 S10       29.89F WCI  28
LARAMIE        PTCLDY    41  12  30 SW16      29.87F
CHEYENNE       CLOUDY    49  13  23 SW14      29.82F
TORRINGTON     MOCLDY    50  17  27 E10       29.68F
PINE BLUFFS    FAIR      39  18  41 S8        29.80F WCI  34

$$



USA.gov is the U.S. government's official web portal to all federal, state and local government web resources and services.